Change the Weather History Date:

Tuesday, November 5, 2013

  Actual Average (KRBD) Record (KRBD)
Temperature  
Mean Temperature 65 °F -  
Max Temperature 70 °F 66 °F 86 °F (2005)
Min Temperature 60 °F 49 °F 39 °F (1998)
Growing Degree Days 15 (Base 50)    
Moisture  
Dew Point 64 °F    
Average Humidity 95    
Maximum Humidity 100    
Minimum Humidity 88    
Precipitation  
Precipitation 0.14 in - - ()
Sea Level Pressure  
Sea Level Pressure 29.99 in    
Wind  
Wind Speed 9 mph (SE)    
Max Wind Speed 15 mph    
Max Gust Speed 22 mph    
Visibility 8 miles    
Events Rain    
Averages and records for this station are not official NWS values.
T = Trace of Precipitation, MM = Missing Value Source: NWS Daily Summary

Daily Weather History Graph

Daily Weather History Graph

Search for Another Location

Airport or City:

Trip Planner

Search our weather history database for the weather conditions in past years. The results will help you decide how hot, cold, wet, or windy it might be!

Date:

Astronomy

Nov. 05, 2013 Rise Set
Actual Time 6:49 AM CST 5:33 PM CST
Civil Twilight 6:23 AM CST 5:59 PM CST
Nautical Twilight 5:54 AM CST 6:28 PM CST
Astronomical Twilight 5:25 AM CST 6:57 PM CST
Moon 9:01 AM CST (11/5) 7:41 PM CST (11/5)
Length of Visible Light 11h 35m
Length of Day
10h 44m
Waxing Crescent, 7% of the Moon is Illuminated
Nov 5
Waxing Crescent
Nov 9
First Quarter
Nov 17
Full
Nov 25
Last Quarter
Dec 2
New

Hourly Weather History & Observations

Time (CST) Temp. Dew Point Humidity Pressure Visibility Wind Dir Wind Speed Gust Speed Precip Events Conditions
12:53 AM 60.1 °F 59.0 °F 96% 30.03 in 10.0 mi East 6.9 mph - 0.08 in Rain Light Rain
1:15 AM 60.8 °F 60.8 °F 100% 30.03 in 10.0 mi East 6.9 mph - 0.00 in   Overcast
1:27 AM 60.8 °F 60.8 °F 100% 30.03 in 10.0 mi East 6.9 mph - 0.00 in   Overcast
1:53 AM 61.0 °F 60.1 °F 97% 30.01 in 10.0 mi ESE 9.2 mph 21.9 mph 0.00 in   Overcast
2:53 AM 62.1 °F 61.0 °F 96% 30.01 in 10.0 mi ESE 8.1 mph - N/A   Overcast
3:53 AM 62.1 °F 61.0 °F 96% 30.00 in 10.0 mi SE 8.1 mph - N/A   Overcast
4:44 AM 62.6 °F 60.8 °F 94% 30.01 in 4.0 mi ESE 9.2 mph - 0.02 in   Mist
4:53 AM 62.1 °F 61.0 °F 96% 29.99 in 3.0 mi ESE 11.5 mph - 0.02 in   Mist
5:14 AM 62.6 °F 60.8 °F 94% 30.00 in 8.0 mi ESE 8.1 mph - N/A   Overcast
5:53 AM 62.1 °F 61.0 °F 96% 29.99 in 8.0 mi ESE 8.1 mph - N/A   Overcast
6:41 AM 62.6 °F 62.6 °F 100% 30.02 in 5.0 mi ESE 11.5 mph - N/A   Overcast
6:53 AM 63.0 °F 62.1 °F 97% 30.00 in 5.0 mi ESE 10.4 mph - N/A   Overcast
7:07 AM 62.6 °F 62.6 °F 100% 30.01 in 2.0 mi ESE 10.4 mph - N/A   Overcast
7:53 AM 63.0 °F 62.1 °F 97% 30.02 in 2.0 mi SE 10.4 mph - N/A   Overcast
8:06 AM 62.6 °F 62.6 °F 100% 30.04 in 5.0 mi SE 10.4 mph - N/A   Overcast
8:40 AM 64.4 °F 62.6 °F 94% 30.04 in 7.0 mi SE 10.4 mph - 0.00 in Rain Light Rain
8:53 AM 64.0 °F 63.0 °F 96% 30.03 in 7.0 mi SE 13.8 mph - 0.00 in   Overcast
9:53 AM 64.9 °F 63.0 °F 93% 30.03 in 7.0 mi SE 6.9 mph - N/A   Overcast
10:53 AM 66.0 °F 63.0 °F 90% 30.02 in 9.0 mi SE 9.2 mph - N/A   Overcast
11:53 AM 66.9 °F 64.0 °F 90% 29.99 in 10.0 mi SSE 15.0 mph 21.9 mph N/A   Overcast
12:07 PM 68.0 °F 64.4 °F 88% 30.00 in 10.0 mi SSE 11.5 mph - N/A   Overcast
12:31 PM 66.2 °F 64.4 °F 94% 29.99 in 8.0 mi SSE 12.7 mph - N/A   Overcast
12:53 PM 66.9 °F 64.0 °F 90% 29.97 in 8.0 mi SSE 9.2 mph 17.3 mph N/A   Overcast
1:53 PM 66.9 °F 64.9 °F 93% 29.95 in 9.0 mi SSE 5.8 mph - 0.00 in Rain Light Rain
2:53 PM 66.9 °F 66.0 °F 97% 29.94 in 10.0 mi SE 6.9 mph - 0.01 in Rain Light Rain
3:53 PM 68.0 °F 66.0 °F 93% 29.92 in 10.0 mi ESE 9.2 mph - 0.00 in   Overcast
4:53 PM 68.0 °F 66.0 °F 93% 29.92 in 10.0 mi SE 6.9 mph - 0.00 in   Overcast
5:53 PM 68.0 °F 66.0 °F 93% 29.92 in 7.0 mi SE 6.9 mph - 0.03 in Rain Light Rain
6:18 PM 68.0 °F 66.2 °F 94% 29.94 in 10.0 mi SE 10.4 mph - 0.00 in   Overcast
6:53 PM 68.0 °F 66.0 °F 93% 29.94 in 10.0 mi SE 10.4 mph - 0.00 in   Overcast
7:21 PM 68.0 °F 66.2 °F 94% 29.95 in 10.0 mi SE 12.7 mph - N/A   Overcast
7:53 PM 68.0 °F 66.0 °F 93% 29.93 in 10.0 mi SE 13.8 mph 19.6 mph N/A   Overcast
8:15 PM 66.2 °F 66.2 °F 100% 29.95 in 10.0 mi SE 10.4 mph - N/A   Overcast
8:53 PM 68.0 °F 66.0 °F 93% 29.95 in 10.0 mi SSE 12.7 mph - N/A   Overcast
9:53 PM 69.1 °F 66.0 °F 90% 29.96 in 10.0 mi SSE 11.5 mph - N/A   Overcast
10:53 PM 70.0 °F 66.9 °F 90% 29.96 in 10.0 mi South 11.5 mph - N/A   Overcast
11:53 PM 70.0 °F 66.9 °F 90% 29.96 in 10.0 mi South 9.2 mph 19.6 mph N/A   Overcast